{"data":{"norad_id":59928,"intl_designator":"2024-106G","name":"STARLINK-31970","alt_names":[],"object_type":"PAYLOAD","status":"ACTIVE","operator":null,"country":"US","launch_date":"2024-06-01","launch_site_code":"AFETR","launch_vehicle":null,"mission":null,"orbit_class":"UNKNOWN","rcs_meters":null,"size_class":null,"mass_kg":null,"dimensions":null,"purposes":["comms"],"wikipedia_slug":null,"has_3d_model":false,"image_url":null,"decayed_at":null,"tle_current":{"epoch":"2026-05-23T18:18:04.485888Z","epoch_age_seconds":178035,"freshness":"STALE","line1":"1 59928U 24106G   26143.76255192  .00002865  00000+0  11358-3 0  9990","line2":"2 59928  42.9999 268.6025 0001498 272.9882  87.0798 15.27582476112051","mean_motion":15.27582476,"eccentricity":0.0001498,"inclination_deg":42.9999,"raan_deg":268.6025,"arg_perigee_deg":272.9882,"mean_anomaly_deg":87.0798,"bstar":0.00011358,"rev_number":11205,"period_min":94.266595920285,"perigee_km":482.01387744837,"apogee_km":484.0694865815,"semimajor_km":6861.1786820149,"source":"CELESTRAK","updated_at":"2026-05-25T13:38:19.122848Z"}}}